Snowfall_Accumulation
nan nan nan nan nan nan nan nan nan nan nan nan nan nan nan nan nan 0.0 0.0 0.0 1.6 4.7 1.3 1.3 0.9 0.7 0.3 0.6 1.8 0.3 0.2 0.5 0.3 3.1 4.2 2.9 3.8 1.5 0.9 0.9 0.6 0.7 2.8 3.1 3.0 9.2 14.3 1.1 0.0 0.9 2.0 0.1 0.2 0.1
nan nan nan nan nan nan nan nan nan nan nan nan nan nan nan nan nan nan 0.2 0.0 0.0 3.3 0.7 0.0 0.0 0.0 0.0 0.0 0.5 0.3 0.5 0.5 0.4 2.2 2.9 2.2 2.5 1.0 1.9 5.6 1.0 2.6 4.8 3.9 5.5 6.9 5.0 2.5 4.5 2.4 2.0 0.8 0.5 0.2
nan nan nan nan nan nan nan nan nan nan nan nan nan nan nan nan nan nan 0.0 0.1 0.0 0.2 0.0 0.0 0.0 0.0 0.0 0.0 0.0 2.4 0.0 0.3 2.9 3.4 5.3 3.1 2.9 1.4 2.2 2.9 3.0 2.0 2.8 4.5 2.5 2.1 2.1 2.2 0.5 1.1 1.1 1.3 0.7 0.2
nan nan nan nan nan nan nan nan nan nan nan nan nan nan nan nan nan nan 0.0 0.0 0.0 0.1 1.2 0.0 0.0 0.0 0.0 0.1 0.1 0.0 0.2 0.0 0.5 2.0 7.5 4.9 6.0 1.1 3.1 4.5 1.7 2.9 2.6 4.9 5.1 3.0 2.3 2.2 1.5 1.6 1.0 0.3 0.3 0.2
nan nan nan nan nan nan nan nan nan nan nan nan nan nan nan nan nan nan 0.0 0.0 0.0 0.3 1.7 0.0 0.0 0.0 0.0 0.0 0.1 0.0 0.1 0.6 2.1 5.8 8.3 11.2 3.1 5.3 3.4 4.8 10.5 8.9 7.6 7.7 7.5 5.4 6.6 4.4 3.9 2.4 1.7 1.7 1.5 1.2
nan nan nan nan nan nan nan nan nan nan nan nan nan nan nan nan nan 0.0 0.1 0.0 0.0 0.0 3.8 1.3 0.0 0.0 0.0 0.2 0.1 0.2 0.5 1.1 4.6 7.9 7.7 10.4 4.1 5.3 14.5 11.2 6.7 4.8 4.6 7.2 10.1 8.3 9.0 7.8 6.2 5.4 5.1 5.1 4.0 2.3
nan nan nan nan nan nan nan nan nan nan nan nan nan nan nan nan 0.0 0.0 0.1 0.0 nan 0.0 1.4 2.4 0.6 0.2 0.0 0.0 0.4 0.9 0.5 6.4 7.4 11.0 10.1 7.6 6.0 2.9 12.0 12.3 8.3 7.0 7.0 8.9 7.4 5.0 6.2 4.8 12.8 8.6 6.9 7.8 6.1 5.5
nan nan nan nan nan nan nan nan nan nan nan nan nan nan nan nan nan 0.1 0.0 nan nan 0.1 0.4 8.3 1.4 0.0 0.0 0.8 3.0 1.0 4.1 5.3 4.2 9.3 6.2 6.9 4.0 4.8 16.0 12.5 8.6 6.6 4.1 3.8 6.4 5.9 9.5 7.0 4.5 5.7 4.1 4.2 4.3 5.5
nan nan nan nan nan nan nan nan nan nan nan nan nan nan 0.0 0.0 0.1 0.1 nan nan 1.5 0.7 8.7 5.8 3.9 4.2 0.0 0.3 1.5 6.2 2.6 4.8 3.6 5.1 7.1 1.7 6.5 14.1 16.5 9.6 6.3 7.2 7.6 7.8 5.1 4.5 3.6 4.3 4.1 3.0 2.9 2.6 2.6 4.1
nan nan nan nan nan nan nan nan nan nan nan nan 0.0 0.0 0.5 0.1 nan nan 0.1 1.0 1.0 2.1 2.3 5.4 0.5 3.5 0.1 0.1 3.9 2.6 6.9 7.4 12.6 6.8 1.8 6.8 19.7 12.9 11.0 8.6 6.1 5.5 5.2 3.3 2.4 1.9 1.1 1.2 1.8 2.0 2.6 2.2 2.7 3.2
nan nan nan nan nan nan nan nan nan nan nan 0.0 0.3 0.5 0.0 nan 0.0 0.1 2.7 5.5 4.1 9.3 2.2 2.1 0.7 2.7 0.7 7.2 6.1 7.2 12.2 9.2 14.6 5.5 3.8 9.4 12.2 11.8 6.9 5.4 3.6 3.0 1.9 1.7 1.2 1.7 1.0 1.3 1.2 0.9 0.6 0.6 0.6 0.8
nan nan nan nan nan nan nan nan nan 0.0 0.0 0.0 0.0 0.0 0.0 0.7 4.0 7.1 7.3 3.8 7.5 8.9 3.5 2.8 1.0 1.1 1.8 1.3 7.3 11.6 13.4 10.5 16.5 2.3 8.9 11.1 13.7 5.7 3.1 3.5 3.1 0.7 0.4 0.3 0.2 0.2 0.1 0.1 0.1 0.1 0.1 0.1 0.1 0.0
nan nan nan nan nan nan nan nan nan nan nan 0.0 0.4 7.6 6.8 10.2 37.4 15.5 11.4 13.4 12.7 2.1 2.3 2.7 3.9 1.6 2.1 0.9 9.6 7.9 17.4 16.2 1.8 13.2 8.1 9.3 5.2 2.4 1.8 0.8 0.2 0.1 0.0 0.0 0.1 0.0 0.0 0.0 0.0 0.0 0.1 0.0 0.0 0.0
nan nan nan nan nan nan nan nan nan 0.0 0.0 5.1 18.6 49.9 15.7 14.1 4.0 6.8 4.8 4.0 1.9 2.2 2.9 3.2 5.1 4.0 3.9 9.8 6.3 16.6 4.8 5.6 17.0 13.2 12.3 5.6 3.3 1.6 0.3 0.1 0.1 0.2 0.1 0.1 0.1 0.1 0.1 0.1 0.0 0.0 0.0 0.0 0.0 0.1
nan nan nan nan nan nan nan nan nan 0.0 0.4 21.4 17.3 32.2 13.3 2.6 2.2 3.6 1.5 1.4 1.2 1.3 2.1 3.8 4.3 2.8 7.7 11.9 3.5 5.6 12.5 12.4 7.3 9.7 5.7 3.0 1.1 0.5 0.2 0.2 0.2 0.2 0.5 1.1 0.9 1.4 1.2 0.8 0.4 0.3 0.1 0.0 0.0 0.1
nan nan 0.2 nan nan nan nan nan 0.0 0.0 10.7 19.7 20.9 13.6 1.1 4.3 4.7 3.4 3.6 2.7 0.9 1.5 1.5 3.2 9.6 15.2 11.4 8.9 13.5 10.5 13.1 8.9 7.6 5.1 3.5 1.9 1.1 0.7 0.4 0.2 0.2 0.2 0.2 0.2 0.1 0.2 0.2 0.2 0.3 0.3 0.1 0.2 0.2 0.3
nan 0.0 nan nan nan nan nan 0.0 0.2 23.3 26.7 29.8 20.8 0.7 1.8 2.7 3.2 1.2 0.7 0.7 0.5 2.3 7.6 8.3 18.1 11.3 7.6 14.9 11.8 6.9 14.0 6.0 3.5 1.8 1.2 0.8 1.3 0.9 1.1 1.1 0.8 0.5 0.3 0.3 0.2 0.1 0.2 0.1 0.1 0.3 0.3 0.1 0.2 0.2
0.3 0.0 nan nan nan nan 0.2 1.7 19.7 31.3 40.0 15.2 6.9 2.9 0.8 0.5 1.3 0.7 0.4 0.4 1.4 2.0 3.0 8.8 8.1 18.9 17.1 12.5 8.4 7.4 4.1 1.6 1.1 0.5 0.8 0.5 0.5 1.2 0.7 0.4 0.4 0.4 0.4 0.5 0.9 0.7 0.9 1.2 0.7 0.6 0.3 0.2 0.5 0.5
0.0 0.0 nan nan 0.0 1.2 14.3 23.0 9.9 32.6 21.9 4.2 1.7 1.2 0.7 0.5 0.4 0.4 0.4 0.4 0.5 0.9 6.2 11.9 17.1 18.0 5.5 3.5 2.9 1.8 1.1 1.2 0.7 0.2 0.3 0.3 0.8 1.4 1.3 2.0 1.0 1.0 1.3 0.9 0.7 1.4 1.2 0.5 0.4 0.4 0.4 0.7 1.2 0.6
nan nan nan nan nan 11.8 35.7 34.6 10.9 11.7 14.9 6.2 2.7 4.3 2.3 1.2 0.4 0.3 0.3 0.6 2.0 9.4 18.6 22.4 6.3 4.1 3.1 2.3 1.8 1.5 1.2 0.7 0.4 0.2 0.2 0.2 0.3 1.1 1.3 1.3 1.0 0.5 0.8 0.9 1.1 nan 1.7 0.9 0.5 0.5 1.1 2.0 1.5 0.9
nan nan nan 0.2 6.5 5.8 15.4 26.2 18.9 13.0 9.8 6.2 6.6 3.6 5.9 4.5 6.4 8.7 8.1 1.5 14.6 20.6 14.6 2.9 3.1 2.3 2.4 1.5 0.7 0.6 0.7 0.6 0.8 1.1 1.4 0.9 0.3 0.3 0.5 0.8 1.0 1.3 1.7 1.4 2.0 1.2 1.1 1.2 0.7 0.9 5.9 1.3 1.1 1.3
0.4 nan 6.2 4.2 24.4 35.9 28.3 12.0 12.8 9.4 13.2 10.3 8.5 6.5 15.3 18.2 15.8 14.1 5.3 19.4 17.8 7.6 2.9 3.0 2.1 1.4 0.9 0.7 0.5 0.4 0.2 0.1 0.1 0.1 nan 0.2 1.0 0.6 0.7 0.8 1.6 3.6 3.3 3.8 2.7 2.1 1.1 0.9 2.0 2.0 1.4 1.5 0.9 0.7
nan 1.3 15.0 17.2 33.1 34.4 36.5 9.0 18.5 15.1 17.6 19.8 14.9 15.6 19.1 19.4 12.7 5.1 17.7 8.8 5.7 3.0 2.3 1.9 1.4 0.6 0.5 0.1 0.1 0.0 0.1 0.2 0.2 0.1 0.1 0.1 0.1 0.4 0.8 0.5 0.7 3.9 4.4 1.7 1.2 1.8 2.7 nan 0.9 2.2 1.4 0.8 1.0 1.2
nan 32.5 40.9 37.0 32.8 35.4 18.6 22.5 10.6 10.6 12.3 13.5 18.7 17.8 17.0 13.8 9.4 18.9 15.2 5.6 4.0 2.6 1.9 1.1 1.0 0.7 0.6 0.8 0.3 0.3 0.4 0.4 0.4 0.2 0.2 1.0 1.2 0.4 0.7 1.1 0.2 0.5 0.9 1.2 2.1 2.3 1.7 1.7 nan 1.5 1.9 2.6 2.5 3.2
45.0 57.3 31.6 48.6 26.4 21.3 15.6 11.5 14.8 9.5 14.1 11.1 13.0 15.5 15.6 11.9 17.8 18.9 11.6 7.3 4.9 4.8 2.6 1.5 1.4 1.4 2.9 3.0 0.4 0.5 0.2 1.0 2.3 1.8 0.5 0.5 0.7 0.8 2.1 1.0 0.3 0.2 0.6 3.8 2.7 2.4 2.4 2.8 2.6 3.3 3.7 5.1 5.8 8.2
59.8 28.0 35.9 16.5 18.4 9.0 8.2 11.5 10.2 12.2 9.6 14.3 15.0 10.9 12.8 12.5 17.8 19.9 8.5 7.4 4.4 4.9 5.9 4.1 3.3 2.3 1.9 1.8 1.8 1.7 1.2 1.3 2.3 1.9 0.8 0.8 1.4 7.0 7.9 4.6 3.9 1.6 0.7 1.3 6.2 7.7 4.6 4.5 5.8 6.2 6.6 5.6 nan 7.2
42.6 25.3 10.3 2.0 2.4 2.0 4.9 5.5 5.3 8.1 13.7 14.0 11.2 10.0 12.4 22.1 15.7 5.8 4.5 4.0 5.2 3.7 3.8 3.6 3.7 3.4 3.0 2.4 1.7 2.0 2.3 3.0 4.8 3.6 1.0 1.0 1.1 1.7 6.1 11.8 9.9 2.1 2.1 5.5 6.1 7.5 11.5 8.3 8.0 7.4 8.5 6.7 7.1 8.8
8.6 5.1 8.5 10.1 6.0 5.1 5.4 6.5 8.7 11.0 8.8 4.3 4.7 11.7 11.7 9.6 8.1 5.3 5.3 4.6 6.7 7.4 8.3 5.8 5.3 4.4 5.8 4.7 4.3 5.2 5.1 5.2 5.8 5.5 5.0 3.4 3.3 3.4 4.0 3.9 5.4 nan 9.1 7.5 13.0 12.6 10.7 10.4 11.8 11.2 9.9 9.9 8.8 6.7
9.3 6.2 4.5 11.4 8.6 10.6 12.3 10.8 9.2 5.3 2.0 3.9 8.4 7.5 7.0 3.7 6.1 5.5 4.9 5.1 8.1 9.1 8.9 7.7 7.2 6.9 6.5 6.1 6.8 7.2 8.4 9.2 10.3 8.5 6.0 5.7 5.4 6.5 6.2 6.7 9.0 8.3 8.1 8.4 nan nan 10.6 16.3 19.5 16.7 11.5 10.6 9.0 10.0
9.6 9.1 8.4 9.9 9.8 9.4 9.3 6.3 9.4 8.3 3.5 4.2 4.5 5.7 5.7 7.7 8.2 4.8 6.7 8.2 9.3 10.3 10.9 11.8 10.8 12.8 11.7 9.7 10.5 8.2 7.2 8.1 10.4 15.3 18.0 12.1 9.5 7.3 10.2 12.0 11.1 9.5 9.2 9.7 9.8 8.4 nan 8.0 nan 9.2 11.5 10.9 10.8 11.9
7.3 10.6 11.4 10.6 11.6 12.9 10.7 7.6 10.2 5.5 8.5 11.1 10.6 9.7 9.7 11.4 8.8 6.5 6.7 7.3 9.0 11.8 12.4 14.5 13.9 14.1 11.6 10.8 12.8 13.1 9.3 7.8 9.3 10.7 13.1 14.1 12.0 11.0 11.7 13.9 12.3 11.8 11.3 11.0 10.5 10.0 11.4 11.8 11.5 12.6 11.0 12.4 11.4 11.9
9.2 12.5 12.6 11.1 15.0 15.2 13.4 15.0 15.6 14.4 14.8 14.9 14.8 14.8 13.7 13.5 13.1 9.6 4.8 11.0 10.4 9.4 nan 10.8 10.2 8.4 8.4 9.3 8.3 8.8 nan 10.6 11.2 11.4 13.6 13.7 14.2 11.6 17.7 13.4 12.7 13.2 12.6 12.3 12.5 13.0 13.5 14.7 14.9 14.5 13.1 14.3 14.3 12.8
18.6 16.2 17.5 14.3 19.3 17.2 15.1 15.6 10.3 19.5 15.4 15.1 12.9 11.8 13.9 9.4 8.6 7.4 5.9 9.9 8.6 10.3 10.7 10.6 9.5 9.7 8.6 8.9 8.6 8.2 nan 10.6 13.5 nan nan nan nan nan 16.1 10.9 11.2 12.1 11.9 12.0 12.9 13.3 14.3 15.1 15.5 14.0 14.2 15.5 15.3 14.6
Water_Equivalent
nan nan nan nan nan nan nan nan nan nan nan nan nan nan nan nan nan 0.00 0.00 0.00 0.39 0.89 0.25 0.21 0.15 0.11 0.06 0.09 0.22 0.04 0.04 0.07 0.05 0.36 0.44 0.29 0.33 0.15 0.08 0.07 0.05 0.07 0.30 0.35 0.31 0.82 1.40 0.11 0.00 0.07 0.16 0.01 0.01 0.01
nan nan nan nan nan nan nan nan nan nan nan nan nan nan nan nan nan nan 0.07 0.00 0.00 0.59 0.11 0.00 0.00 0.00 0.00 0.00 0.10 0.06 0.08 0.08 0.07 0.32 0.38 0.27 0.30 0.12 0.19 0.44 0.10 0.21 0.41 0.33 0.49 0.59 0.50 0.26 0.42 0.24 0.21 0.08 0.04 0.02
nan nan nan nan nan nan nan nan nan nan nan nan nan nan nan nan nan nan 0.00 0.02 0.00 0.04 0.00 0.00 0.00 0.00 0.00 0.00 0.00 0.36 0.00 0.04 0.40 0.62 0.64 0.42 0.35 0.21 0.22 0.25 0.27 0.18 0.27 0.45 0.23 0.23 0.20 0.21 0.07 0.14 0.13 0.16 0.09 0.03
nan nan nan nan nan nan nan nan nan nan nan nan nan nan nan nan nan nan 0.00 0.00 0.01 0.01 0.16 0.00 0.00 0.00 0.00 0.01 0.01 0.00 0.04 0.01 0.11 0.33 1.08 0.73 0.81 0.15 0.37 0.44 0.14 0.26 0.25 0.44 0.55 0.43 0.36 0.39 0.24 0.23 0.14 0.04 0.04 0.03
nan nan nan nan nan nan nan nan nan nan nan nan nan nan nan nan nan nan 0.00 0.00 0.00 0.06 0.28 0.00 0.00 0.00 0.00 0.01 0.02 0.00 0.02 0.10 0.34 0.93 1.27 1.50 0.41 0.73 0.47 0.60 1.01 0.92 0.74 0.76 0.78 0.60 0.66 0.57 0.53 0.31 0.22 0.20 0.19 0.14
nan nan nan nan nan nan nan nan nan nan nan nan nan nan nan nan nan 0.00 0.02 0.00 0.00 0.00 0.59 0.30 0.00 0.00 0.00 0.04 0.02 0.04 0.07 0.16 0.70 1.22 1.08 1.48 0.60 0.64 1.89 1.11 0.74 0.54 0.53 0.83 1.07 1.05 1.04 0.95 0.75 0.70 0.59 0.59 0.47 0.28
nan nan nan nan nan nan nan nan nan nan nan nan nan nan nan nan 0.00 0.00 0.02 0.01 nan 0.00 0.24 0.66 0.11 0.04 0.00 0.00 0.07 0.17 0.08 0.96 1.04 1.55 1.34 1.02 0.72 0.36 1.52 1.25 0.88 0.75 0.77 0.99 0.93 0.62 0.69 0.55 1.34 1.00 0.82 0.95 0.73 0.66
nan nan nan nan nan nan nan nan nan nan nan nan nan nan nan nan nan 0.02 0.00 nan nan 0.01 0.10 2.46 0.30 0.01 0.00 0.14 0.39 0.23 0.66 0.94 0.60 1.31 0.90 0.86 0.55 0.63 1.85 1.26 0.90 0.74 0.47 0.41 0.70 0.65 1.02 0.83 0.55 0.68 0.46 0.47 0.44 0.54
nan nan nan nan nan nan nan nan nan nan nan nan nan nan 0.00 0.00 0.01 0.02 nan nan 0.28 0.14 1.52 1.22 0.79 1.18 0.00 0.07 0.22 0.78 0.39 0.69 0.48 0.59 0.78 0.23 0.67 1.54 1.48 0.90 0.63 0.70 0.71 0.82 0.63 0.53 0.41 0.45 0.40 0.29 0.27 0.25 0.23 0.37
nan nan nan nan nan nan nan nan nan nan nan nan 0.00 0.00 0.21 0.01 nan nan 0.03 0.20 0.24 0.34 0.50 0.93 0.08 0.54 0.02 0.01 0.49 0.33 1.04 1.11 2.68 0.74 0.23 0.88 1.69 1.42 1.23 0.91 0.62 0.59 0.61 0.40 0.27 0.18 0.11 0.11 0.15 0.17 0.22 0.19 0.23 0.27
nan nan nan nan nan nan nan nan nan nan nan 0.00 0.11 0.18 0.00 nan 0.00 0.02 0.78 1.23 0.76 1.59 0.37 0.34 0.12 0.34 0.13 1.04 0.94 0.97 2.05 1.47 2.48 0.60 0.58 1.21 1.12 1.14 0.74 0.57 0.39 0.32 0.20 0.16 0.10 0.14 0.09 0.10 0.10 0.07 0.05 0.05 0.05 0.07
nan nan nan nan nan nan nan nan nan 0.00 0.00 0.00 0.00 0.00 0.00 0.28 1.27 1.71 1.66 0.98 1.30 1.45 0.55 0.48 0.23 0.19 0.26 0.17 1.06 1.99 2.05 1.90 2.03 0.26 1.43 1.31 1.25 0.56 0.31 0.38 0.36 0.05 0.04 0.02 0.02 0.02 0.01 0.01 0.01 0.01 0.01 0.01 0.01 0.00
nan nan nan nan nan nan nan nan nan nan nan 0.00 0.16 2.53 1.80 2.50 6.35 2.59 1.67 2.47 2.32 0.53 0.61 0.61 0.86 0.28 0.43 0.19 1.69 1.41 2.86 2.21 0.24 2.12 0.75 0.78 0.50 0.24 0.16 0.07 0.02 0.01 0.00 0.00 0.00 0.00 0.00 0.00 0.00 0.00 0.01 0.00 0.00 0.00
nan nan nan nan nan nan nan nan nan 0.00 0.00 1.28 5.07 9.30 2.87 2.48 0.68 1.05 0.70 0.71 0.37 0.62 0.61 0.57 1.07 0.71 0.69 1.70 1.01 2.87 0.69 0.85 2.32 1.66 1.17 0.53 0.30 0.12 0.03 0.01 0.01 0.02 0.02 0.02 0.01 0.01 0.01 0.01 0.00 0.00 0.00 0.00 0.00 0.00
nan nan nan nan nan nan nan nan nan 0.00 0.10 5.38 4.05 5.42 2.34 0.41 0.54 0.75 0.50 0.46 0.32 0.24 0.41 0.74 0.90 0.52 1.67 2.15 0.58 1.12 1.80 1.73 0.76 0.95 0.65 0.31 0.09 0.04 0.04 0.03 0.04 0.03 0.09 0.25 0.24 0.33 0.30 0.19 0.10 0.08 0.02 0.01 0.01 0.01
nan nan 0.08 nan nan nan nan nan 0.00 0.00 2.86 5.30 4.87 2.56 0.17 0.95 1.21 0.93 1.19 0.83 0.27 0.28 0.35 0.78 1.86 2.43 1.89 1.47 2.04 1.51 1.86 1.02 0.87 0.68 0.52 0.36 0.20 0.14 0.08 0.03 0.02 0.02 0.02 0.02 0.01 0.02 0.02 0.03 0.06 0.06 0.03 0.05 0.05 0.06
nan 0.00 nan nan nan nan nan 0.01 0.10 7.97 7.42 7.33 4.25 0.12 0.35 0.62 0.65 0.27 0.19 0.18 0.09 0.52 1.55 1.55 2.53 1.61 1.35 2.15 1.62 1.19 2.00 0.72 0.47 0.27 0.22 0.10 0.21 0.15 0.24 0.21 0.16 0.08 0.05 0.04 0.02 0.02 0.02 0.01 0.02 0.04 0.04 0.02 0.04 0.05
0.08 0.00 nan nan nan nan 0.06 0.66 5.64 7.94 7.85 3.29 1.18 0.54 0.11 0.08 0.28 0.20 0.11 0.13 0.32 0.47 0.62 1.78 1.35 2.69 2.21 1.64 1.14 0.94 0.58 0.24 0.15 0.10 0.14 0.07 0.08 0.23 0.14 0.07 0.08 0.07 0.06 0.08 0.16 0.11 0.14 0.17 0.11 0.11 0.05 0.03 0.07 0.08
0.00 0.00 nan nan 0.00 0.40 5.09 6.87 3.56 5.74 3.95 0.86 0.33 0.24 0.15 0.10 0.09 0.07 0.10 0.10 0.14 0.22 1.33 2.15 2.71 2.49 0.60 0.44 0.33 0.22 0.12 0.14 0.05 0.02 0.05 0.03 0.16 0.25 0.25 0.35 0.18 0.17 0.20 0.16 0.12 0.23 0.18 0.08 0.06 0.07 0.07 0.10 0.14 0.09
nan nan nan nan nan 3.26 7.35 7.14 3.24 2.22 2.26 0.98 0.56 0.77 0.43 0.23 0.11 0.09 0.11 0.18 0.54 2.25 3.29 3.50 0.74 0.27 0.20 0.17 0.17 0.13 0.10 0.04 0.02 0.01 0.01 0.05 0.07 0.20 0.23 0.24 0.20 0.10 0.16 0.16 0.21 nan 0.24 0.16 0.11 0.09 0.14 0.23 0.20 0.13
nan nan nan 0.05 2.41 2.02 4.32 4.68 2.97 2.25 1.61 0.91 1.15 0.63 0.85 1.01 1.21 1.71 1.67 0.46 2.91 3.66 2.02 0.24 0.22 0.18 0.19 0.13 0.05 0.04 0.04 0.03 0.04 0.06 0.11 0.10 0.02 0.10 0.13 0.21 0.25 0.29 0.30 0.25 0.33 0.21 0.23 0.21 0.13 0.15 1.14 0.23 0.19 0.19
0.15 nan 2.01 1.51 6.77 8.30 5.23 2.59 2.10 1.44 1.71 1.43 1.36 1.10 2.46 2.95 2.61 2.36 1.25 3.29 2.67 1.01 0.27 0.23 0.18 0.14 0.10 0.05 0.03 0.02 0.01 0.01 0.01 0.01 nan 0.01 0.16 0.11 0.12 0.16 0.27 0.64 0.60 0.72 0.45 0.31 0.18 0.16 0.26 0.27 0.23 0.24 0.17 0.14
nan 0.48 4.31 5.45 5.96 5.95 6.09 1.84 2.55 2.11 2.24 2.74 2.17 2.06 2.65 2.78 1.83 0.95 2.59 1.29 0.77 0.30 0.25 0.22 0.13 0.05 0.07 0.01 0.01 0.00 0.00 0.01 0.01 0.01 0.01 0.01 0.01 0.08 0.16 0.08 0.13 0.68 0.77 0.30 0.22 0.28 0.42 nan 0.18 0.30 0.23 0.17 0.17 0.20
nan 6.87 7.25 6.16 5.34 5.36 2.64 3.10 1.38 1.30 1.47 1.59 2.45 2.15 2.10 1.76 1.28 2.58 1.84 0.65 0.41 0.38 0.26 0.12 0.18 0.14 0.11 0.13 0.05 0.05 0.06 0.06 0.06 0.03 0.03 0.14 0.18 0.06 0.13 0.21 0.03 0.08 0.14 0.19 0.32 0.38 0.29 0.27 nan 0.27 0.31 0.41 0.40 0.43
8.74 10.12 5.19 7.79 3.79 2.66 1.78 1.20 1.78 1.03 1.57 1.20 1.41 1.74 1.80 1.27 2.19 2.37 1.20 0.72 0.60 0.57 0.38 0.22 0.20 0.20 0.42 0.49 0.08 0.08 0.02 0.12 0.22 0.20 0.09 0.09 0.09 0.13 0.34 0.15 0.05 0.04 0.11 0.58 0.38 0.34 0.39 0.46 0.43 0.50 0.51 0.62 0.73 0.94
9.94 4.11 5.45 2.09 2.31 1.02 0.84 1.21 1.01 1.28 0.99 1.51 1.58 1.05 1.36 1.38 2.06 2.36 0.75 0.82 0.48 0.62 0.82 0.52 0.36 0.29 0.28 0.26 0.20 0.20 0.17 0.19 0.27 0.24 0.13 0.13 0.16 0.87 1.09 0.58 0.51 0.22 0.11 0.16 0.72 0.97 0.65 0.63 0.75 0.78 0.83 0.70 nan 0.98
6.27 3.36 1.26 0.24 0.24 0.18 0.45 0.53 0.51 0.85 1.45 1.45 1.13 0.99 1.36 2.52 1.64 0.44 0.39 0.37 0.54 0.44 0.51 0.51 0.47 0.43 0.36 0.32 0.26 0.33 0.38 0.48 0.64 0.50 0.20 0.19 0.17 0.21 0.78 1.39 1.07 0.27 0.30 0.71 0.79 0.95 1.35 1.02 0.96 0.90 1.02 0.88 0.89 1.05
0.99 0.55 0.90 1.17 0.59 0.50 0.51 0.58 0.84 1.08 0.85 0.38 0.46 1.19 1.25 0.91 0.71 0.45 0.50 0.52 0.81 0.92 1.02 0.67 0.69 0.64 0.73 0.66 0.62 0.72 0.72 0.74 0.75 0.71 0.64 0.43 0.42 0.53 0.59 0.59 0.76 nan 1.19 0.99 1.52 1.57 1.38 1.29 1.42 1.32 1.17 1.16 1.06 0.86
1.01 0.68 0.47 1.23 0.84 1.07 1.28 1.10 0.89 0.48 0.16 0.35 0.82 0.68 0.59 0.30 0.61 0.54 0.53 0.63 0.99 1.05 0.92 0.81 0.88 0.96 0.81 0.77 0.79 0.86 1.03 1.06 1.11 0.88 0.59 0.53 0.56 0.73 0.80 0.84 1.09 1.05 1.04 1.05 nan nan 1.26 1.94 2.20 1.93 1.41 1.24 1.07 1.31
1.01 1.05 0.83 0.95 0.99 0.89 0.93 0.54 0.97 0.84 0.34 0.40 0.41 0.50 0.46 0.70 0.85 0.67 0.76 0.88 0.93 1.05 1.26 1.44 1.32 1.64 1.39 1.12 1.23 0.90 0.86 0.94 1.14 1.52 1.72 1.22 1.04 0.87 1.20 1.32 1.23 1.10 1.08 1.11 1.12 1.03 nan 1.18 nan 1.22 1.31 1.21 1.25 1.33
0.78 1.22 1.09 0.98 1.11 1.37 1.02 0.66 1.00 0.46 0.79 1.11 1.03 0.98 0.90 1.11 0.83 0.70 0.64 0.70 0.87 1.33 1.44 1.76 1.70 1.72 1.24 1.15 1.42 1.39 0.99 0.86 1.00 1.09 1.26 1.44 1.33 1.25 1.36 1.54 1.39 1.33 1.28 1.21 1.15 1.10 1.28 1.31 1.26 1.38 1.16 1.33 1.22 1.28
0.95 1.24 1.32 1.05 1.62 1.74 1.31 1.59 1.65 1.53 1.56 1.61 1.55 1.58 1.37 1.34 1.15 0.90 0.57 1.17 1.12 0.95 nan 1.16 0.99 0.83 0.94 1.03 0.91 0.95 nan 1.08 1.14 1.19 1.38 1.43 1.45 1.30 1.86 1.49 1.49 1.48 1.40 1.35 1.38 1.42 1.47 1.62 1.62 1.56 1.35 1.48 1.47 1.28
2.11 1.77 1.96 1.41 2.27 1.90 1.64 1.84 0.98 2.39 1.66 1.56 1.23 1.09 1.37 0.83 0.67 0.64 0.52 0.96 0.91 0.95 0.98 1.06 0.99 1.01 0.83 0.86 0.84 0.80 nan 1.05 1.31 nan nan nan nan nan 1.73 1.22 1.26 1.31 1.26 1.28 1.38 1.43 1.52 1.61 1.65 1.39 1.39 1.56 1.54 1.45
SL_Ratio
nan nan nan nan nan nan nan nan nan nan nan nan nan nan nan nan nan nan nan nan 4.2 5.3 5.2 6.4 6.3 6.7 5.9 6.5 8.5 6.4 5.7 7.0 5.9 8.6 9.4 10.3 11.4 10.0 10.8 11.8 13.0 10.4 9.4 8.9 9.5 11.2 10.2 10.2 nan 13.5 13.1 10.7 10.4 10.0
nan nan nan nan nan nan nan nan nan nan nan nan nan nan nan nan nan nan 3.5 nan nan 5.6 6.5 6.7 5.0 nan 5.0 nan 5.3 5.4 5.7 6.1 5.8 6.9 7.7 8.3 8.6 8.8 9.9 12.8 9.5 12.4 11.8 11.8 11.2 11.8 10.1 9.7 10.9 10.2 9.4 10.4 10.4 8.3
nan nan nan nan nan nan nan nan nan nan nan nan nan nan nan nan nan nan 3.3 4.4 5.0 5.4 nan nan 10.0 nan nan nan nan 6.7 0.0 6.6 7.1 5.6 8.3 7.4 8.2 6.8 10.1 11.7 10.9 11.4 10.4 10.1 10.9 8.9 10.7 10.4 7.0 8.1 8.0 8.3 8.6 9.6
nan nan nan nan nan nan nan nan nan nan nan nan nan nan nan nan nan nan nan nan 4.2 5.5 7.3 nan nan nan nan 5.3 5.2 4.0 4.7 4.7 5.1 6.0 6.9 6.7 7.4 7.1 8.2 10.1 12.1 11.4 10.5 11.1 9.3 7.0 6.4 5.7 6.2 7.2 6.9 6.8 7.4 6.5
nan nan nan nan nan nan nan nan nan nan nan nan nan nan nan nan nan nan nan nan nan 5.9 6.2 6.7 nan 5.0 nan 5.4 5.6 6.7 5.1 5.5 6.3 6.2 6.5 7.4 7.5 7.4 7.4 8.0 10.3 9.7 10.3 10.1 9.7 9.0 10.0 7.8 7.4 7.6 7.8 8.5 8.0 8.2
nan nan nan nan nan nan nan nan nan nan nan nan nan nan nan nan nan nan 7.1 nan nan nan 6.5 4.3 8.0 6.0 4.6 5.2 5.3 5.8 6.4 6.8 6.5 6.4 7.1 7.0 6.8 8.2 7.7 10.1 9.1 8.8 8.6 8.6 9.4 7.9 8.6 8.1 8.2 7.8 8.6 8.6 8.5 8.3
nan nan nan nan nan nan nan nan nan nan nan nan nan nan nan nan nan 3.3 7.4 4.4 nan nan 5.6 3.6 5.3 5.4 2.5 5.7 6.3 5.7 5.9 6.7 7.1 7.1 7.5 7.4 8.4 8.2 7.9 9.8 9.4 9.3 9.0 9.0 7.9 8.0 9.0 8.7 9.6 8.6 8.4 8.1 8.3 8.4
nan nan nan nan nan nan nan nan nan nan nan nan nan nan nan nan nan 4.4 0.0 nan nan 5.7 4.0 3.4 4.8 7.4 nan 5.5 7.5 4.2 6.2 5.7 7.0 7.1 6.9 8.0 7.3 7.7 8.7 9.9 9.5 9.0 8.6 9.2 9.2 9.1 9.3 8.5 8.0 8.5 9.0 9.0 9.7 10.2
nan nan nan nan nan nan nan nan nan nan nan nan nan nan nan nan 5.5 5.7 nan nan 5.2 5.2 5.7 4.7 4.9 3.5 5.0 4.8 6.9 8.0 6.7 6.9 7.5 8.6 9.2 7.3 9.7 9.2 11.1 10.7 10.1 10.2 10.7 9.6 8.1 8.4 8.7 9.7 10.3 10.5 10.6 10.5 11.0 11.0
nan nan nan nan nan nan nan nan nan nan nan nan nan 1.7 2.5 5.5 nan nan 4.6 4.9 4.2 6.3 4.6 5.8 6.1 6.5 5.9 6.6 8.0 7.9 6.7 6.7 4.7 9.2 7.6 7.7 11.7 9.1 8.9 9.5 9.8 9.3 8.6 8.5 8.9 10.5 10.2 11.0 11.8 11.7 12.0 11.7 11.6 11.6
nan nan nan nan nan nan nan nan nan nan nan nan 2.5 2.5 nan nan nan 2.7 3.4 4.5 5.4 5.8 6.1 6.3 6.0 7.8 5.7 6.9 6.5 7.5 6.0 6.3 5.9 9.1 6.6 7.7 10.9 10.4 9.3 9.4 9.2 9.3 9.7 10.7 11.6 11.8 11.7 12.3 12.5 12.9 12.5 12.1 11.8 11.9
nan nan nan nan nan nan nan nan nan nan nan nan 4.4 nan nan 2.5 3.1 4.2 4.4 3.9 5.7 6.1 6.3 5.8 4.6 6.0 6.9 7.8 6.9 5.8 6.5 5.5 8.1 8.7 6.2 8.5 11.0 10.2 9.9 9.2 8.7 12.5 11.3 11.9 12.5 12.4 12.6 12.6 12.4 12.9 13.1 13.5 12.7 12.0
nan nan nan nan nan nan nan nan nan nan nan nan 2.5 3.0 3.8 4.1 5.9 6.0 6.8 5.4 5.4 4.0 3.7 4.5 4.5 5.8 4.9 4.4 5.6 5.6 6.1 7.3 7.7 6.2 10.8 11.9 10.5 9.8 11.3 11.4 12.6 11.4 12.5 12.9 14.2 12.9 14.0 13.0 13.3 13.0 13.2 11.4 10.0 15.0
nan nan nan nan nan nan nan nan nan nan nan 4.0 3.7 5.4 5.5 5.7 6.0 6.5 6.9 5.6 5.1 3.6 4.8 5.7 4.8 5.6 5.7 5.8 6.2 5.8 7.0 6.6 7.3 7.9 10.6 10.7 11.3 12.7 12.6 9.3 9.1 7.9 7.5 5.9 11.8 11.9 10.8 13.8 14.4 13.3 12.0 12.0 13.8 13.3
nan nan nan nan nan nan nan nan nan nan 3.5 4.0 4.3 6.0 5.7 6.4 4.1 4.8 3.0 3.0 3.8 5.2 5.2 5.1 4.8 5.3 4.6 5.5 6.1 5.0 7.0 7.2 9.5 10.3 8.7 9.7 12.2 11.4 6.9 5.7 6.3 6.1 5.1 4.2 3.8 4.1 4.0 4.3 4.0 4.0 3.6 6.0 8.8 8.9
nan nan 3.1 nan nan nan nan nan nan nan 3.7 3.7 4.3 5.3 6.3 4.5 3.9 3.6 3.0 3.3 3.4 5.3 4.4 4.1 5.1 6.2 6.1 6.0 6.6 6.9 7.0 8.7 8.7 7.5 6.8 5.4 5.6 4.8 5.0 7.0 8.5 9.8 8.2 8.3 7.7 7.2 6.8 6.9 4.8 5.5 3.6 3.8 3.8 4.2
nan 3.8 nan nan nan nan nan 2.6 2.5 2.9 3.6 4.1 4.9 6.1 5.0 4.4 5.0 4.6 3.6 3.7 5.9 4.4 4.9 5.4 7.2 7.0 5.6 6.9 7.3 5.7 7.0 8.4 7.3 6.7 5.5 7.6 6.3 6.1 4.6 5.2 5.1 5.7 6.1 6.8 7.5 7.6 8.4 6.5 4.7 5.7 6.4 4.5 4.7 4.3
4.4 nan nan nan nan nan 3.3 2.5 3.5 3.9 5.1 4.6 5.8 5.3 6.9 5.6 4.6 3.7 3.6 3.1 4.5 4.4 4.9 4.9 6.0 7.0 7.7 7.6 7.4 7.9 7.0 6.6 6.9 5.4 5.7 7.1 6.5 5.2 4.8 6.5 5.4 6.4 7.3 6.1 6.0 6.0 6.5 7.0 6.8 5.7 6.6 5.6 6.3 6.5
nan nan nan nan nan 3.1 2.8 3.4 2.8 5.7 5.5 5.0 5.3 4.9 4.8 5.2 4.9 6.0 3.9 3.7 3.7 4.3 4.6 5.5 6.3 7.2 9.2 8.0 8.7 7.9 9.1 8.3 13.7 12.1 6.0 9.4 5.1 5.7 5.3 5.7 5.6 6.0 6.5 5.9 5.9 6.1 6.6 5.9 6.6 5.8 5.9 6.8 8.0 7.0
nan nan nan nan nan 3.6 4.9 4.8 3.4 5.3 6.6 6.4 4.8 5.6 5.3 5.3 3.9 3.0 2.9 3.1 3.8 4.2 5.7 6.4 8.5 15.1 15.2 13.8 10.5 11.6 11.4 15.4 18.4 19.0 10.9 3.7 4.7 5.4 5.7 5.4 4.9 5.4 5.0 6.0 5.3 nan 7.0 5.3 4.7 5.1 7.8 8.6 7.4 7.0
nan nan nan 3.6 2.7 2.9 3.6 5.6 6.4 5.8 6.1 6.8 5.7 5.7 7.0 4.4 5.3 5.1 4.9 3.3 5.0 5.6 7.2 12.2 14.0 12.9 12.4 11.3 13.1 14.5 16.5 17.5 18.9 18.4 12.9 9.6 15.9 3.5 3.7 4.0 4.2 4.4 5.7 5.8 6.2 5.8 4.9 5.9 5.3 5.9 5.2 5.5 5.6 6.8
2.5 nan 3.1 2.8 3.6 4.3 5.4 4.7 6.1 6.5 7.7 7.3 6.3 5.9 6.2 6.2 6.0 6.0 4.3 5.9 6.7 7.5 10.8 13.3 11.8 10.1 9.3 14.9 15.8 15.8 16.1 17.3 17.6 18.3 nan 17.3 6.1 5.5 5.9 5.1 5.9 5.7 5.5 5.3 6.0 6.9 6.2 5.7 7.9 7.4 6.0 6.2 5.4 4.6
nan 2.8 3.5 3.2 5.6 5.8 6.0 4.9 7.2 7.2 7.9 7.2 6.9 7.6 7.2 7.0 6.9 5.3 6.8 6.8 7.4 10.0 9.3 8.6 10.5 10.9 7.3 7.1 8.9 16.0 16.2 16.7 16.0 18.0 18.1 15.4 10.7 5.0 5.2 5.9 5.6 5.7 5.7 5.6 5.5 6.4 6.5 nan 4.8 7.3 5.9 5.0 5.8 5.9
nan 4.7 5.6 6.0 6.1 6.6 7.0 7.3 7.7 8.2 8.4 8.5 7.6 8.3 8.1 7.9 7.3 7.3 8.3 8.6 9.9 7.0 7.5 9.0 5.5 5.2 5.4 6.7 6.4 6.5 7.0 6.3 6.9 5.9 4.6 7.3 6.3 6.4 5.7 5.4 6.6 5.8 6.7 6.3 6.4 6.2 6.0 6.2 nan 5.6 6.0 6.5 6.3 7.3
5.2 5.7 6.1 6.2 7.0 8.0 8.7 9.6 8.3 9.3 9.0 9.3 9.3 9.0 8.7 9.4 8.1 8.0 9.6 10.1 8.1 8.3 7.0 6.8 6.9 7.1 7.0 6.1 5.1 6.0 8.1 8.6 10.4 9.1 5.1 6.0 7.8 6.6 6.2 6.4 6.9 6.0 5.7 6.5 7.1 7.0 6.0 6.1 6.1 6.6 7.2 8.1 7.9 8.7
6.0 6.8 6.6 7.9 7.9 8.9 9.7 9.5 10.1 9.5 9.7 9.5 9.5 10.4 9.4 9.1 8.7 8.4 11.2 9.1 9.1 7.9 7.1 7.9 9.1 7.7 7.0 6.7 9.4 8.2 7.2 6.7 8.3 7.9 5.9 6.1 8.8 8.0 7.2 7.9 7.6 7.2 6.3 8.0 8.6 7.9 7.1 7.2 7.8 8.0 8.0 8.0 nan 7.4
6.8 7.5 8.2 8.3 10.1 11.0 10.8 10.4 10.4 9.6 9.4 9.7 9.8 10.1 9.1 8.8 9.6 13.2 11.6 10.6 9.6 8.5 7.5 7.1 7.8 8.0 8.5 7.6 6.5 6.2 6.1 6.2 7.4 7.2 4.9 5.3 6.2 7.9 7.7 8.5 9.3 7.8 7.1 7.8 7.7 7.8 8.5 8.2 8.4 8.3 8.3 7.6 8.0 8.4
8.7 9.3 9.4 8.6 10.1 10.2 10.6 11.1 10.4 10.2 10.3 11.2 10.3 9.8 9.4 10.6 11.3 11.7 10.6 8.9 8.3 8.1 8.1 8.7 7.8 6.9 8.0 7.2 7.0 7.2 7.1 7.0 7.8 7.7 7.7 7.9 7.9 6.4 6.8 6.7 7.1 nan 7.6 7.6 8.6 8.0 7.7 8.0 8.3 8.5 8.5 8.5 8.3 7.8
9.2 9.1 9.5 9.3 10.3 9.9 9.6 9.8 10.3 11.2 12.4 11.4 10.2 11.1 11.9 12.7 10.1 10.1 9.4 8.1 8.2 8.7 9.6 9.5 8.2 7.1 7.9 8.0 8.6 8.4 8.2 8.7 9.3 9.6 10.1 10.6 9.7 8.8 7.7 8.0 8.2 7.9 7.8 8.0 nan nan 8.4 8.4 8.9 8.6 8.1 8.5 8.4 7.7
9.5 8.6 10.1 10.4 9.9 10.5 10.0 11.5 9.7 9.9 10.5 10.6 11.0 11.5 12.4 10.9 9.6 7.2 8.8 9.3 10.0 9.9 8.7 8.2 8.2 7.8 8.4 8.6 8.5 9.2 8.4 8.7 9.1 10.1 10.5 9.9 9.2 8.4 8.5 9.1 9.1 8.6 8.5 8.7 8.7 8.1 nan 6.7 nan 7.5 8.7 9.0 8.7 8.9
9.4 8.7 10.5 10.8 10.5 9.5 10.5 11.5 10.2 12.0 10.7 10.0 10.3 9.9 10.8 10.3 10.6 9.2 10.4 10.3 10.3 8.9 8.6 8.3 8.2 8.2 9.4 9.4 9.0 9.4 9.4 9.1 9.3 9.8 10.4 9.8 9.0 8.8 8.6 9.0 8.9 8.8 8.8 9.1 9.2 9.1 8.9 9.0 9.1 9.1 9.5 9.4 9.3 9.3
9.7 10.0 9.5 10.6 9.2 8.7 10.2 9.4 9.5 9.4 9.5 9.2 9.5 9.3 10.0 10.0 11.4 10.7 8.3 9.4 9.3 10.0 nan 9.3 10.3 10.1 8.9 9.0 9.2 9.3 nan 9.8 9.9 9.6 9.9 9.5 9.8 8.9 9.5 9.0 8.5 8.9 9.0 9.1 9.1 9.1 9.2 9.1 9.2 9.3 9.7 9.6 9.7 10.0
8.8 9.1 8.9 10.1 8.5 9.1 9.2 8.5 10.5 8.1 9.3 9.7 10.5 10.8 10.2 11.3 12.8 11.5 11.4 10.4 9.4 10.9 10.9 10.0 9.5 9.7 10.4 10.4 10.2 10.3 nan 10.1 10.3 nan nan nan nan nan 9.3 8.9 9.0 9.2 9.4 9.4 9.3 9.3 9.4 9.4 9.3 10.1 10.3 9.9 9.9 10.1